Danville, IN

1:49 PM EDT on July 25, 2017 (GMT -0400)
Vermilion County

Weather History for KDNV - September, 2013

Change the Weather History Date:

Monday, September 30, 2013

  Actual Average (KLAF) Record (KLAF)
Temperature  
Mean Temperature 60 °F -  
Max Temperature 77 °F 73 °F 91 °F (1971)
Min Temperature 44 °F 48 °F 30 °F (1993)
Degree Days  
Heating Degree Days 5    
Growing Degree Days 10 (Base 50)    
Moisture  
Dew Point 52 °F    
Average Humidity 78    
Maximum Humidity 94    
Minimum Humidity 45    
Precipitation  
Precipitation 0.00 in - - ()
Sea Level Pressure  
Sea Level Pressure 29.95 in    
Wind  
Wind Speed 4 mph (SSW)    
Max Wind Speed 12 mph    
Max Gust Speed -    
Visibility 6 miles    
Events Fog , Rain    
Averages and records for this station are not official NWS values.
T = Trace of Precipitation, MM = Missing Value Source: NWS Daily Summary

Daily Weather History Graph

Daily Weather History Graph

Search for Another Location

Airport or City:

Trip Planner

Search our weather history database for the weather conditions in past years. The results will help you decide how hot, cold, wet, or windy it might be!

Date:

Astronomy

Sep. 30, 2013 Rise Set
Actual Time 6:46 AM CDT 6:33 PM CDT
Civil Twilight 6:18 AM CDT 7:00 PM CDT
Nautical Twilight 5:47 AM CDT 7:32 PM CDT
Astronomical Twilight 5:15 AM CDT 8:04 PM CDT
Moon 2:22 AM CDT (9/30) 4:04 PM CDT (9/30)
Length of Visible Light 12h 41m
Length of Day
11h 47m
Waning Crescent, 19% of the Moon is Illuminated
Sep 30
Waning Crescent
Oct 4
New
Oct 11
First Quarter
Oct 18
Full
Oct 26
Last Quarter

Hourly Weather History & Observations

Time (CDT) Temp. Windchill Dew Point Humidity Pressure Visibility Wind Dir Wind Speed Gust Speed Precip Events Conditions
12:15 AM 48.6 °F - 44.1 °F 84% 29.98 in 10.0 mi NE 3.5 mph - N/A   Clear
12:35 AM 48.2 °F - 43.9 °F 85% 29.98 in 10.0 mi NNE 3.5 mph - N/A   Clear
12:55 AM 47.8 °F - 44.1 °F 87% 29.98 in 10.0 mi NE 3.5 mph - N/A   Clear
1:15 AM 47.1 °F - 43.3 °F 87% 29.98 in 10.0 mi Calm Calm - N/A   Clear
1:35 AM 46.0 °F 44.8 °F 42.4 °F 87% 29.98 in 10.0 mi NE 3.5 mph - N/A   Clear
1:55 AM 46.2 °F - 42.8 °F 88% 29.97 in 10.0 mi Calm Calm - N/A   Clear
2:15 AM 45.7 °F - 42.4 °F 88% 29.97 in 10.0 mi Calm Calm - N/A   Clear
2:35 AM 46.4 °F 44.3 °F 43.3 °F 89% 29.97 in 10.0 mi NNE 4.6 mph - N/A   Clear
2:55 AM 45.5 °F - 42.4 °F 89% 29.97 in 7.0 mi Calm Calm - N/A   Clear
3:15 AM 44.1 °F - 41.0 °F 89% 29.96 in 7.0 mi Calm Calm - N/A   Clear
3:35 AM 44.6 °F - 41.7 °F 90% 29.96 in 10.0 mi Calm Calm - N/A   Scattered Clouds
3:55 AM 44.2 °F - 40.5 °F 87% 29.96 in 7.0 mi Calm Calm - N/A   Scattered Clouds
4:15 AM 45.5 °F - 41.9 °F 87% 29.96 in 2.5 mi Calm Calm - N/A   Overcast
4:35 AM 45.7 °F - 42.4 °F 88% 29.96 in 0.2 mi Calm Calm - N/A Fog Fog
4:55 AM 45.5 °F - 41.7 °F 87% 29.96 in 0.2 mi Calm Calm - N/A Fog Fog
5:15 AM 47.1 °F - 43.7 °F 88% 29.96 in 0.2 mi Calm Calm - N/A Fog Fog
5:35 AM 48.6 °F - 45.3 °F 89% 29.97 in 0.2 mi Calm Calm - N/A Fog Fog
5:55 AM 49.6 °F - 46.6 °F 89% 29.98 in 0.5 mi Calm Calm - N/A Fog Fog
6:15 AM 50.2 °F - 47.3 °F 90% 29.98 in 0.5 mi Calm Calm - N/A Rain Light Rain
6:35 AM 51.4 °F - 48.9 °F 91% 29.99 in 0.5 mi Calm Calm - N/A Rain Light Rain
6:55 AM 52.2 °F - 49.5 °F 91% 29.99 in 0.8 mi Calm Calm - N/A   Overcast
7:15 AM 52.7 °F - 50.0 °F 91% 30.00 in 0.5 mi Calm Calm - N/A Fog Fog
7:35 AM 52.9 °F - 49.5 °F 88% 30.00 in 0.8 mi Calm Calm - N/A Rain Light Rain
7:55 AM 54.0 °F - 51.4 °F 91% 30.00 in 0.8 mi Calm Calm - N/A Rain Light Rain
8:15 AM 55.0 °F - 53.1 °F 93% 29.99 in 2.5 mi SSE 3.5 mph - N/A   Overcast
8:35 AM 55.8 °F - 54.0 °F 94% 29.99 in 5.0 mi SSE 4.6 mph - N/A   Overcast
8:55 AM 56.3 °F - 54.5 °F 94% 29.99 in 4.0 mi Calm Calm - N/A   Overcast
9:15 AM 56.7 °F - 55.0 °F 94% 29.99 in 5.0 mi SSW 4.6 mph - N/A   Overcast
9:35 AM 57.7 °F - 55.8 °F 93% 29.99 in 7.0 mi South 4.6 mph - N/A   Overcast
9:55 AM 58.1 °F - 55.6 °F 91% 29.99 in 7.0 mi SSW 6.9 mph - N/A   Overcast
10:15 AM 59.0 °F - 56.3 °F 91% 29.99 in 7.0 mi SSW 5.8 mph - N/A   Overcast
10:35 AM 59.4 °F - 55.8 °F 88% 29.98 in 5.0 mi South 5.8 mph - N/A   Overcast
10:55 AM 59.9 °F - 56.3 °F 88% 29.99 in 5.0 mi SSW 3.5 mph - N/A   Overcast
11:15 AM 59.9 °F - 56.5 °F 88% 30.00 in 5.0 mi SW 4.6 mph - N/A   Overcast
11:35 AM 60.8 °F - 56.3 °F 85% 29.99 in 5.0 mi SSW 5.8 mph - N/A   Haze
11:55 AM 62.1 °F - 56.5 °F 82% 29.98 in 7.0 mi SSW 5.8 mph - N/A   Overcast
12:15 PM 66.4 °F - 56.8 °F 71% 29.98 in 7.0 mi West 3.5 mph - N/A   Mostly Cloudy
12:35 PM 68.0 °F - 56.8 °F 67% 29.97 in 10.0 mi WSW 6.9 mph - N/A   Clear
12:55 PM 69.8 °F - 57.4 °F 65% 29.96 in 10.0 mi WSW 6.9 mph - N/A   Scattered Clouds
1:15 PM 71.1 °F - 55.9 °F 59% 29.95 in 10.0 mi SW 8.1 mph - N/A   Scattered Clouds
1:35 PM 72.0 °F - 55.8 °F 57% 29.94 in 10.0 mi South 9.2 mph - N/A   Clear
1:55 PM 72.1 °F - 55.8 °F 56% 29.94 in 5.0 mi SSW 8.1 mph - N/A   Haze
2:15 PM 71.8 °F - 55.2 °F 56% 29.93 in 7.0 mi SSW 6.9 mph - N/A   Scattered Clouds
2:35 PM 72.5 °F - 56.5 °F 57% 29.92 in 7.0 mi SW 8.1 mph - N/A   Scattered Clouds
2:55 PM 74.5 °F - 58.6 °F 58% 29.91 in 7.0 mi SW 10.4 mph - N/A   Scattered Clouds
3:15 PM 74.1 °F - 54.5 °F 50% 29.91 in 10.0 mi South 11.5 mph - N/A   Scattered Clouds
3:35 PM 76.1 °F - 54.3 °F 47% 29.91 in 7.0 mi SSW 3.5 mph - N/A   Clear
3:55 PM 76.1 °F - 54.5 °F 47% 29.90 in 5.0 mi SW 8.1 mph - N/A   Haze
4:15 PM 76.5 °F - 53.8 °F 45% 29.90 in 7.0 mi South 8.1 mph - N/A   Clear
4:35 PM 76.6 °F - 54.1 °F 46% 29.90 in 5.0 mi WSW 9.2 mph - N/A   Haze
4:55 PM 76.1 °F - 53.8 °F 46% 29.90 in 5.0 mi SSW 8.1 mph - N/A   Haze
5:15 PM 75.4 °F - 52.5 °F 45% 29.90 in 7.0 mi SSW 11.5 mph - N/A   Clear
5:35 PM 74.8 °F - 52.5 °F 46% 29.90 in 7.0 mi SSW 8.1 mph - N/A   Clear
5:55 PM 73.4 °F - 52.9 °F 49% 29.89 in 7.0 mi South 6.9 mph - N/A   Clear
6:15 PM 71.2 °F - 53.4 °F 53% 29.90 in 7.0 mi SSW 4.6 mph - N/A   Clear
6:35 PM 68.0 °F - 52.2 °F 57% 29.90 in 7.0 mi SSW 4.6 mph - N/A   Clear
6:55 PM 65.5 °F - 53.6 °F 65% 29.91 in 7.0 mi South 4.6 mph - N/A   Clear
7:15 PM 63.7 °F - 54.5 °F 72% 29.92 in 10.0 mi South 5.8 mph - N/A   Clear
7:35 PM 62.8 °F - 54.7 °F 75% 29.92 in 7.0 mi SSW 5.8 mph - N/A   Clear
7:55 PM 61.7 °F - 55.0 °F 79% 29.93 in 7.0 mi SSW 5.8 mph - N/A   Clear
8:15 PM 60.3 °F - 54.5 °F 81% 29.93 in 7.0 mi South 5.8 mph - N/A   Clear
8:35 PM 58.8 °F - 54.0 °F 84% 29.93 in 7.0 mi SSW 4.6 mph - N/A   Clear
8:55 PM 58.8 °F - 54.7 °F 86% 29.94 in 7.0 mi South 4.6 mph - N/A   Clear
9:15 PM 58.5 °F - 54.7 °F 87% 29.94 in 10.0 mi South 4.6 mph - N/A   Clear
9:35 PM 57.7 °F - 54.3 °F 88% 29.94 in 10.0 mi South 5.8 mph - N/A   Clear
9:55 PM 57.9 °F - 54.9 °F 90% 29.94 in 10.0 mi South 6.9 mph - N/A   Clear
10:15 PM 59.0 °F - 56.3 °F 91% 29.94 in 7.0 mi South 5.8 mph - N/A   Clear
10:35 PM 59.2 °F - 56.8 °F 92% 29.94 in 10.0 mi South 6.9 mph - N/A   Clear
10:55 PM 59.9 °F - 57.7 °F 93% 29.94 in 7.0 mi South 5.8 mph - N/A   Clear
11:15 PM 59.7 °F - 57.6 °F 93% 29.94 in 7.0 mi South 6.9 mph - N/A   Clear
11:35 PM 59.5 °F - 57.7 °F 94% 29.94 in 7.0 mi South 6.9 mph - N/A   Clear
11:55 PM 59.7 °F - 58.1 °F 94% 29.94 in 7.0 mi South 6.9 mph - N/A   Clear